This is the latest recevied weather packets stored in our database for station/object LKLN. If no packets are shown the sender has not sent any weather packets the latest 10 day(s).
| Time | Temp. | Humidity | Pressure | Rain* | Wind** | Luminosity | Snow |
|---|---|---|---|---|---|---|---|
| 1788678072 | 13.89° C | 71% | 1028 hPa | - | - | - | - |
| 1788676270 | 12.78° C | 71% | 1028 hPa | - | - | - | - |
| 1788674473 | 11.11° C | 87% | 1027 hPa | - | - | - | - |
| 1788672670 | 10° C | 87% | 1027 hPa | - | - | - | - |
| 1788670961 | 10° C | 87% | 1027 hPa | - | - | - | - |
| 1788669151 | 10° C | 81% | 1027 hPa | - | - | - | - |
| 1788667358 | 10° C | 87% | 1027 hPa | - | - | - | - |
| 1788665470 | 10° C | 87% | 1026 hPa | - | - | - | - |
| 1788663670 | 12.22° C | 76% | 1026 hPa | - | - | - | - |
| 1788661870 | 11.11° C | 81% | 1026 hPa | - | - | - | - |
| 1788660162 | 12.22° C | 76% | 1026 hPa | - | - | - | - |
| 1788658270 | 10° C | 87% | 1026 hPa | - | - | - | - |
| 1788656472 | 10° C | 81% | 1026 hPa | - | - | - | - |
| 1788654670 | 11.11° C | 76% | 1026 hPa | - | - | - | - |
| 1788652884 | 12.22° C | 76% | 1025 hPa | - | - | - | - |
| 1788651151 | 12.78° C | 71% | 1025 hPa | - | - | - | - |
| 1788649367 | 12.22° C | 76% | 1025 hPa | - | - | - | - |
| 1788647470 | 13.89° C | 62% | 1025 hPa | - | - | - | - |
| 1788645763 | 15° C | 58% | 1025 hPa | - | - | - | - |
| 1788643870 | 16.11° C | 55% | 1025 hPa | - | - | - | - |
| 1788642163 | 16.11° C | 55% | 1024 hPa | - | - | - | - |
| 1788642066 | 16.11° C | 55% | 1024 hPa | - | - | - | - |
| 1788641505 | 16.11° C | 55% | 1024 hPa | - | - | - | - |
| 1788641264 | 16.11° C | 55% | 1024 hPa | - | - | - | - |
| 1788640914 | 16.11° C | 55% | 1024 hPa | - | - | - | - |
* Rain since midnight (hover to see other rain measurements)
** Current wind speed in m/s (hover to see current wind gust speed)